{"data":{"norad_id":55960,"epoch":"2026-09-20T21:49:41.022912Z","epoch_age_seconds":70750,"freshness":"FRESH","line1":"1 55960U 23037AY  26263.90950258  .00001872  00000+0  16462-3 0  9996","line2":"2 55960  69.9988 132.2860 0002674 269.7126  90.3726 14.98332406193718","mean_motion":14.98332406,"eccentricity":0.0002674,"inclination_deg":69.9988,"raan_deg":132.286,"arg_perigee_deg":269.7126,"mean_anomaly_deg":90.3726,"bstar":0.00016462,"rev_number":19371,"period_min":96.106844798497,"perigee_km":570.18997100835,"apogee_km":573.90693018734,"semimajor_km":6950.1854505978,"source":"CELESTRAK","updated_at":"2026-09-21T09:00:33.347770Z"}}